| time (UTC) | temp F | wind direction | speed MPH | gust MPH | rain 1hr in | rain 24hr in | rain mn in | humidity % | barometer mb |
| 20260902043323 | 76 | 256 | 2.0 | 6.0 | 0.00 | 0.00 | 0.00 | 55 | 1017.1 |
| 20260902042807 | 76 | 256 | 2.0 | 3.0 | 0.00 | 0.00 | 0.00 | 56 | 1017.1 |
| 20260902042245 | 76 | 255 | 1.0 | 3.0 | 0.00 | 0.00 | 0.00 | 56 | 1017.1 |
| 20260902041748 | 77 | 255 | 0.0 | 2.0 | 0.00 | 0.00 | 0.00 | 57 | 1017.1 |
| 20260902041214 | 77 | 256 | 0.0 | 1.0 | 0.00 | 0.00 | 0.00 | 58 | 1017.0 |
| 20260902040713 | 78 | 255 | 0.0 | 0.0 | 0.00 | 0.00 | 0.00 | 57 | 1017.1 |
| 20260902040212 | 78 | 256 | 0.0 | 0.0 | 0.00 | 0.00 | 0.00 | 58 | 1017.1 |
| 20260902035645 | 78 | 256 | 0.0 | 1.0 | 0.00 | 0.00 | 0.00 | 57 | 1017.0 |
| 20260902035141 | 78 | 255 | 0.0 | 2.0 | 0.00 | 0.00 | 0.00 | 57 | 1016.9 |
| 20260902034639 | 78 | 256 | 1.0 | 3.0 | 0.00 | 0.00 | 0.00 | 56 | 1016.9 |
| 20260902034137 | 79 | 256 | 2.0 | 5.0 | 0.00 | 0.00 | 0.00 | 56 | 1017.0 |
| 20260902033610 | 79 | 255 | 3.0 | 4.0 | 0.00 | 0.00 | 0.00 | 54 | 1017.1 |
| 20260902033045 | 79 | 254 | 3.0 | 9.0 | 0.00 | 0.00 | 0.00 | 54 | 1017.4 |
| 20260902032538 | 79 | 254 | 4.0 | 8.0 | 0.00 | 0.00 | 0.00 | 54 | 1017.4 |
| 20260902032033 | 79 | 247 | 5.0 | 12.0 | 0.00 | 0.00 | 0.00 | 54 | 1017.5 |
| 20260902031532 | 79 | 246 | 4.0 | 10.0 | 0.00 | 0.00 | 0.00 | 55 | 1017.5 |
| 20260902031233 | 79 | 276 | 4.0 | 8.0 | 0.00 | 0.00 | 0.00 | 56 | 1017.6 |
| 20260902031107 | 79 | 276 | 4.0 | 8.0 | 0.00 | 0.00 | 0.00 | 56 | 1017.6 |
| 20260902030504 | 80 | 265 | 4.0 | 7.0 | 0.00 | 0.00 | 0.00 | 55 | 1017.7 |
| 20260902030236 | 80 | 256 | 3.0 | 7.0 | 0.00 | 0.00 | 0.00 | 55 | 1017.6 |
| 20260902030106 | 80 | 256 | 3.0 | 7.0 | 0.00 | 0.00 | 0.00 | 55 | 1017.6 |
| 20260902025439 | 80 | 254 | 4.0 | 8.0 | 0.00 | 0.00 | 0.00 | 54 | 1017.5 |
| 20260902024934 | 80 | 251 | 4.0 | 9.0 | 0.00 | 0.00 | 0.00 | 53 | 1017.5 |
| 20260902024430 | 81 | 242 | 4.0 | 9.0 | 0.00 | 0.00 | 0.00 | 53 | 1017.4 |
| 20260902023908 | 81 | 234 | 3.0 | 8.0 | 0.00 | 0.00 | 0.00 | 52 | 1017.2 |
| 20260902023357 | 82 | 0 | 4.0 | 9.0 | 0.00 | 0.00 | 0.00 | 51 | 1017.2 |
| 20260902022834 | 82 | 0 | 6.0 | 14.0 | 0.00 | 0.00 | 0.00 | 50 | 1017.2 |
| 20260902022337 | 83 | 0 | 6.0 | 14.0 | 0.00 | 0.00 | 0.00 | 49 | 1017.1 |
| 20260902021832 | 83 | 0 | 8.0 | 18.0 | 0.00 | 0.00 | 0.00 | 47 | 1017.0 |
| 20260902021437 | 85 | 0 | 9.0 | 17.0 | 0.00 | 0.00 | 0.00 | 43 | 1016.9 |
| 20260902021338 | 84 | 0 | 10.0 | 18.0 | 0.00 | 0.00 | 0.00 | 46 | 1016.9 |
| 20260902021124 | 85 | 0 | 9.0 | 17.0 | 0.00 | 0.00 | 0.00 | 43 | 1016.9 |
| 20260902020256 | 85 | 0 | 6.0 | 13.0 | 0.00 | 0.00 | 0.00 | 41 | 1016.8 |
| 20260902015754 | 86 | 0 | 5.0 | 13.0 | 0.00 | 0.00 | 0.00 | 41 | 1016.7 |
| 20260902015301 | 87 | 0 | 4.0 | 13.0 | 0.00 | 0.00 | 0.00 | 40 | 1016.5 |
| 20260902014756 | 87 | 0 | 2.0 | 11.0 | 0.00 | 0.00 | 0.00 | 39 | 1016.0 |
| 20260902014230 | 87 | 0 | 1.0 | 6.0 | 0.00 | 0.00 | 0.00 | 37 | 1015.8 |
| 20260902013702 | 88 | 0 | 0.0 | 2.0 | 0.00 | 0.00 | 0.00 | 37 | 1015.8 |
| 20260902013136 | 88 | 0 | 0.0 | 2.0 | 0.00 | 0.00 | 0.00 | 36 | 1015.7 |
| 20260902012608 | 89 | 0 | 0.0 | 2.0 | 0.00 | 0.00 | 0.00 | 36 | 1015.6 |
| 20260902012105 | 89 | 0 | 0.0 | 2.0 | 0.00 | 0.00 | 0.00 | 35 | 1015.5 |
| 20260902011538 | 89 | 0 | 1.0 | 4.0 | 0.00 | 0.00 | 0.00 | 35 | 1015.5 |
| 20260902011024 | 90 | 144 | 1.0 | 4.0 | 0.00 | 0.00 | 0.00 | 34 | 1015.4 |
| 20260902010741 | 90 | 146 | 1.0 | 3.0 | 0.00 | 0.00 | 0.00 | 33 | 1015.4 |
| 20260902010622 | 90 | 146 | 1.0 | 3.0 | 0.00 | 0.00 | 0.00 | 33 | 1015.4 |
| 20260902010012 | 91 | 146 | 1.0 | 5.0 | 0.00 | 0.00 | 0.00 | 33 | 1015.5 |
| 20260902005736 | 91 | 146 | 1.0 | 5.0 | 0.00 | 0.00 | 0.00 | 32 | 1015.5 |
| 20260902005625 | 91 | 146 | 1.0 | 5.0 | 0.00 | 0.00 | 0.00 | 32 | 1015.5 |
| 20260902005245 | 92 | 150 | 1.0 | 6.0 | 0.00 | 0.00 | 0.00 | 32 | 1015.6 |
| 20260902004439 | 92 | 153 | 1.0 | 6.0 | 0.00 | 0.00 | 0.00 | 31 | 1015.6 |
| 20260902003915 | 93 | 152 | 1.0 | 5.0 | 0.00 | 0.00 | 0.00 | 31 | 1015.7 |
| 20260902003351 | 93 | 153 | 1.0 | 5.0 | 0.00 | 0.00 | 0.00 | 30 | 1015.8 |
| 20260902002824 | 93 | 153 | 1.0 | 5.0 | 0.00 | 0.00 | 0.00 | 30 | 1015.8 |
| 20260902002327 | 94 | 157 | 1.0 | 6.0 | 0.00 | 0.00 | 0.00 | 29 | 1015.8 |
| 20260902001752 | 94 | 157 | 1.0 | 6.0 | 0.00 | 0.00 | 0.00 | 28 | 1015.8 |
| 20260902001226 | 94 | 168 | 1.0 | 4.0 | 0.00 | 0.00 | 0.00 | 28 | 1015.8 |
| 20260902000700 | 95 | 174 | 1.0 | 6.0 | 0.00 | 0.00 | 0.00 | 28 | 1015.8 |
| 20260902000131 | 95 | 192 | 1.0 | 7.0 | 0.00 | 0.00 | 0.00 | 28 | 1015.9 |
| 20260901235632 | 95 | 125 | 1.0 | 7.0 | 0.00 | 0.00 | 0.00 | 27 | 1015.9 |
| 20260901235343 | 95 | 184 | 2.0 | 8.0 | 0.00 | 0.00 | 0.00 | 27 | 1015.9 |
| 20260901235232 | 95 | 184 | 2.0 | 8.0 | 0.00 | 0.00 | 0.00 | 27 | 1015.9 |
| 20260901234600 | 95 | 169 | 2.0 | 8.0 | 0.00 | 0.00 | 0.00 | 27 | 1015.8 |
| 20260901234101 | 96 | 174 | 2.0 | 8.0 | 0.00 | 0.00 | 0.00 | 27 | 1015.9 |
| 20260901233553 | 96 | 136 | 2.0 | 8.0 | 0.00 | 0.00 | 0.00 | 26 | 1015.9 |
| 20260901233055 | 96 | 214 | 2.0 | 9.0 | 0.00 | 0.00 | 0.00 | 26 | 1015.9 |
| 20260901232537 | 96 | 171 | 1.0 | 9.0 | 0.00 | 0.00 | 0.00 | 27 | 1015.9 |
| 20260901232038 | 96 | 209 | 3.0 | 9.0 | 0.00 | 0.00 | 0.00 | 27 | 1016.0 |
| 20260901231513 | 96 | 171 | 3.0 | 10.0 | 0.00 | 0.00 | 0.00 | 27 | 1016.0 |
| 20260901231012 | 95 | 247 | 4.0 | 11.0 | 0.00 | 0.00 | 0.00 | 27 | 1016.1 |
| 20260901230442 | 95 | 248 | 4.0 | 11.0 | 0.00 | 0.00 | 0.00 | 27 | 1016.3 |
| 20260901230148 | 95 | 207 | 4.0 | 16.0 | 0.00 | 0.00 | 0.00 | 27 | 1016.3 |
| 20260901230019 | 95 | 207 | 4.0 | 16.0 | 0.00 | 0.00 | 0.00 | 27 | 1016.3 |
| 20260901225411 | 95 | 180 | 4.0 | 15.0 | 0.00 | 0.00 | 0.00 | 27 | 1016.1 |
| 20260901225141 | 95 | 206 | 4.0 | 15.0 | 0.00 | 0.00 | 0.00 | 27 | 1016.3 |
| 20260901225010 | 95 | 206 | 4.0 | 15.0 | 0.00 | 0.00 | 0.00 | 27 | 1016.3 |
| 20260901224354 | 95 | 221 | 4.0 | 10.0 | 0.00 | 0.00 | 0.00 | 27 | 1016.0 |
| 20260901223850 | 95 | 157 | 3.0 | 11.0 | 0.00 | 0.00 | 0.00 | 27 | 1016.1 |
| 20260901223320 | 95 | 113 | 4.0 | 12.0 | 0.00 | 0.00 | 0.00 | 27 | 1016.1 |
| 20260901222755 | 95 | 180 | 5.0 | 12.0 | 0.00 | 0.00 | 0.00 | 27 | 1016.4 |
| 20260901222452 | 96 | 207 | 6.0 | 17.0 | 0.00 | 0.00 | 0.00 | 27 | 1016.3 |
| 20260901222334 | 96 | 207 | 6.0 | 17.0 | 0.00 | 0.00 | 0.00 | 27 | 1016.3 |
| 20260901221738 | 96 | 243 | 6.0 | 17.0 | 0.00 | 0.00 | 0.00 | 26 | 1016.1 |
| 20260901221158 | 96 | 175 | 5.0 | 14.0 | 0.00 | 0.00 | 0.00 | 26 | 1015.9 |
| 20260901220915 | 96 | 208 | 4.0 | 14.0 | 0.00 | 0.00 | 0.00 | 27 | 1015.8 |
| 20260901220752 | 96 | 208 | 4.0 | 14.0 | 0.00 | 0.00 | 0.00 | 27 | 1015.8 |
| 20260901220132 | 97 | 157 | 4.0 | 10.0 | 0.00 | 0.00 | 0.00 | 26 | 1015.9 |
| 20260901215609 | 97 | 123 | 3.0 | 15.0 | 0.00 | 0.00 | 0.00 | 25 | 1016.0 |
| 20260901215105 | 97 | 167 | 5.0 | 15.0 | 0.00 | 0.00 | 0.00 | 26 | 1016.0 |
| 20260901214605 | 97 | 155 | 6.0 | 18.0 | 0.00 | 0.00 | 0.00 | 26 | 1016.0 |
| 20260901214103 | 97 | 221 | 5.0 | 18.0 | 0.00 | 0.00 | 0.00 | 26 | 1016.1 |
| 20260901213822 | 97 | 178 | 4.0 | 17.0 | 0.00 | 0.00 | 0.00 | 26 | 1016.0 |
| 20260901213702 | 97 | 178 | 4.0 | 17.0 | 0.00 | 0.00 | 0.00 | 26 | 1016.0 |
| 20260901213032 | 97 | 173 | 5.0 | 22.0 | 0.00 | 0.00 | 0.00 | 26 | 1016.1 |
| 20260901212529 | 97 | 111 | 5.0 | 22.0 | 0.00 | 0.00 | 0.00 | 25 | 1016.1 |
| 20260901212012 | 98 | 161 | 5.0 | 21.0 | 0.00 | 0.00 | 0.00 | 26 | 1016.1 |
| 20260901211516 | 98 | 151 | 5.0 | 14.0 | 0.00 | 0.00 | 0.00 | 26 | 1016.3 |
| 20260901211012 | 97 | 211 | 4.0 | 14.0 | 0.00 | 0.00 | 0.00 | 27 | 1016.3 |
| 20260901210513 | 96 | 225 | 5.0 | 11.0 | 0.00 | 0.00 | 0.00 | 27 | 1016.5 |
| 20260901210012 | 96 | 213 | 5.0 | 17.0 | 0.00 | 0.00 | 0.00 | 27 | 1016.6 |
| 20260901205711 | 97 | 235 | 3.0 | 9.0 | 0.00 | 0.00 | 0.00 | 30 | 1016.6 |
| 20260901205556 | 97 | 235 | 3.0 | 9.0 | 0.00 | 0.00 | 0.00 | 30 | 1016.6 |
| 20260901204949 | 96 | 222 | 3.0 | 7.0 | 0.00 | 0.00 | 0.00 | 31 | 1016.6 |
| 20260901204441 | 96 | 212 | 3.0 | 9.0 | 0.00 | 0.00 | 0.00 | 30 | 1016.8 |
| 20260901204201 | 96 | 220 | 4.0 | 15.0 | 0.00 | 0.00 | 0.00 | 29 | 1016.9 |
| 20260901204045 | 96 | 220 | 4.0 | 15.0 | 0.00 | 0.00 | 0.00 | 29 | 1016.9 |
| 20260901203427 | 96 | 215 | 4.0 | 15.0 | 0.00 | 0.00 | 0.00 | 29 | 1017.1 |
| 20260901203122 | 97 | 204 | 4.0 | 10.0 | 0.00 | 0.00 | 0.00 | 29 | 1017.1 |
| 20260901203003 | 97 | 204 | 4.0 | 10.0 | 0.00 | 0.00 | 0.00 | 29 | 1017.1 |
| 20260901202335 | 97 | 201 | 5.0 | 10.0 | 0.00 | 0.00 | 0.00 | 29 | 1017.2 |
| 20260901202036 | 98 | 213 | 4.0 | 10.0 | 0.00 | 0.00 | 0.00 | 30 | 1017.4 |
| 20260901201915 | 98 | 213 | 4.0 | 10.0 | 0.00 | 0.00 | 0.00 | 30 | 1017.4 |
| 20260901201256 | 98 | 223 | 5.0 | 11.0 | 0.00 | 0.00 | 0.00 | 28 | 1017.5 |
| 20260901200800 | 98 | 236 | 4.0 | 11.0 | 0.00 | 0.00 | 0.00 | 28 | 1017.6 |
| 20260901200253 | 98 | 188 | 2.0 | 8.0 | 0.00 | 0.00 | 0.00 | 33 | 1017.5 |
| 20260901195727 | 97 | 224 | 3.0 | 10.0 | 0.00 | 0.00 | 0.00 | 33 | 1017.7 |
| 20260901195217 | 96 | 200 | 4.0 | 14.0 | 0.00 | 0.00 | 0.00 | 33 | 1017.8 |
| 20260901194716 | 96 | 192 | 4.0 | 14.0 | 0.00 | 0.00 | 0.00 | 34 | 1017.9 |
| 20260901194629 | 95 | 201 | 4.0 | 10.0 | 0.00 | 0.00 | 0.00 | 35 | 1018.0 |
| 20260901194251 | 95 | 201 | 4.0 | 10.0 | 0.00 | 0.00 | 0.00 | 35 | 1018.0 |
| 20260901193645 | 94 | 142 | 5.0 | 14.0 | 0.00 | 0.00 | 0.00 | 36 | 1018.1 |
| 20260901193145 | 94 | 257 | 6.0 | 14.0 | 0.00 | 0.00 | 0.00 | 36 | 1018.1 |
| 20260901192644 | 94 | 239 | 7.0 | 13.0 | 0.00 | 0.00 | 0.00 | 35 | 1018.1 |
| 20260901192625 | 95 | 250 | 6.0 | 15.0 | 0.00 | 0.00 | 0.00 | 33 | 1018.3 |
| 20260901192234 | 95 | 250 | 6.0 | 15.0 | 0.00 | 0.00 | 0.00 | 33 | 1018.3 |
| 20260901191627 | 95 | 196 | 5.0 | 15.0 | 0.00 | 0.00 | 0.00 | 35 | 1018.3 |
| 20260901191122 | 95 | 255 | 4.0 | 10.0 | 0.00 | 0.00 | 0.00 | 36 | 1018.3 |
| 20260901190619 | 95 | 257 | 3.0 | 8.0 | 0.00 | 0.00 | 0.00 | 36 | 1018.2 |
| 20260901190119 | 95 | 223 | 3.0 | 8.0 | 0.00 | 0.00 | 0.00 | 35 | 1018.4 |
| 20260901185549 | 96 | 227 | 4.0 | 9.0 | 0.00 | 0.00 | 0.00 | 35 | 1018.6 |
| 20260901185019 | 95 | 241 | 4.0 | 9.0 | 0.00 | 0.00 | 0.00 | 35 | 1018.4 |
| 20260901184447 | 96 | 225 | 3.0 | 11.0 | 0.00 | 0.00 | 0.00 | 34 | 1018.4 |
| 20260901183921 | 96 | 220 | 2.0 | 8.0 | 0.00 | 0.00 | 0.00 | 35 | 1018.6 |
| 20260901183401 | 96 | 129 | 3.0 | 8.0 | 0.00 | 0.00 | 0.00 | 37 | 1018.6 |
| 20260901182857 | 0 | 0.0 | 0.0 | 0.00 | 0.00 | 0.00 | 1018.7 | ||
| 20260901180951 | 95 | 134 | 3.0 | 9.0 | 0.00 | 0.00 | 0.00 | 37 | 1018.7 |
| 20260901180448 | 94 | 196 | 3.0 | 8.0 | 0.00 | 0.00 | 0.00 | 38 | 1018.7 |
| 20260901175946 | 94 | 178 | 3.0 | 10.0 | 0.00 | 0.00 | 0.00 | 38 | 1018.9 |
| 20260901175433 | 93 | 159 | 3.0 | 10.0 | 0.00 | 0.00 | 0.00 | 39 | 1019.0 |
| 20260901174932 | 93 | 130 | 3.0 | 9.0 | 0.00 | 0.00 | 0.00 | 38 | 1019.1 |
| 20260901174429 | 92 | 207 | 3.0 | 8.0 | 0.00 | 0.00 | 0.00 | 40 | 1019.3 |
| 20260901173911 | 92 | 205 | 3.0 | 10.0 | 0.00 | 0.00 | 0.00 | 40 | 1019.2 |
| 20260901173339 | 92 | 198 | 4.0 | 10.0 | 0.00 | 0.00 | 0.00 | 39 | 1019.1 |
| 20260901172840 | 91 | 148 | 4.0 | 10.0 | 0.00 | 0.00 | 0.00 | 40 | 1019.4 |
| 20260901172311 | 91 | 163 | 4.0 | 10.0 | 0.00 | 0.00 | 0.00 | 39 | 1019.4 |
| 20260901171744 | 91 | 212 | 4.0 | 10.0 | 0.00 | 0.00 | 0.00 | 40 | 1019.4 |
| 20260901171242 | 91 | 0.0 | 0.0 | 0.00 | 0.00 | 0.00 | 41 | ||
| 20260901165541 | 89 | 200 | 4.0 | 14.0 | 0.00 | 0.00 | 0.00 | 43 | 1019.7 |
| 20260901165419 | 89 | 200 | 4.0 | 14.0 | 0.00 | 0.00 | 0.00 | 43 | 1019.7 |
| 20260901165127 | 89 | 192 | 3.0 | 14.0 | 0.00 | 0.00 | 0.00 | 42 | 1019.5 |
| 20260901165045 | 89 | 192 | 3.0 | 14.0 | 0.00 | 0.00 | 0.00 | 42 | 1019.5 |
| 20260901164451 | 89 | 183 | 3.0 | 10.0 | 0.00 | 0.00 | 0.00 | 43 | 1019.5 |
| 20260901164334 | 89 | 183 | 3.0 | 10.0 | 0.00 | 0.00 | 0.00 | 43 | 1019.5 |
| 20260901163946 | 88 | 171 | 3.0 | 9.0 | 0.00 | 0.00 | 0.00 | 44 | 1019.5 |
| 20260901163822 | 88 | 171 | 3.0 | 9.0 | 0.00 | 0.00 | 0.00 | 44 | 1019.5 |
| 20260901163159 | 88 | 132 | 4.0 | 11.0 | 0.00 | 0.00 | 0.00 | 44 | 1019.7 |
| 20260901162659 | 88 | 310 | 3.0 | 12.0 | 0.00 | 0.00 | 0.00 | 44 | 1019.7 |
| 20260901162155 | 87 | 225 | 3.0 | 12.0 | 0.00 | 0.00 | 0.00 | 44 | 1019.7 |
| 20260901162143 | 87 | 173 | 3.0 | 9.0 | 0.00 | 0.00 | 0.00 | 45 | 1019.5 |
| 20260901161800 | 87 | 173 | 3.0 | 9.0 | 0.00 | 0.00 | 0.00 | 45 | 1019.5 |
| 20260901161131 | 87 | 209 | 3.0 | 12.0 | 0.00 | 0.00 | 0.00 | 46 | 1019.5 |
| 20260901160851 | 87 | 138 | 3.0 | 12.0 | 0.00 | 0.00 | 0.00 | 45 | 1019.4 |
| 20260901160736 | 87 | 138 | 3.0 | 12.0 | 0.00 | 0.00 | 0.00 | 45 | 1019.4 |
| 20260901160129 | 87 | 142 | 3.0 | 8.0 | 0.00 | 0.00 | 0.00 | 45 | 1019.4 |
| 20260901155558 | 87 | 123 | 3.0 | 8.0 | 0.00 | 0.00 | 0.00 | 46 | 1019.7 |
| 20260901155059 | 86 | 170 | 3.0 | 8.0 | 0.00 | 0.00 | 0.00 | 46 | 1019.7 |
| 20260901154603 | 86 | 180 | 3.0 | 14.0 | 0.00 | 0.00 | 0.00 | 46 | 1019.5 |
| 20260901154059 | 85 | 147 | 3.0 | 14.0 | 0.00 | 0.00 | 0.00 | 47 | 1019.5 |
| 20260901153532 | 85 | 175 | 3.0 | 9.0 | 0.00 | 0.00 | 0.00 | 48 | 1019.5 |
| 20260901153015 | 84 | 133 | 3.0 | 9.0 | 0.00 | 0.00 | 0.00 | 49 | 1019.5 |
| 20260901152449 | 84 | 196 | 4.0 | 10.0 | 0.00 | 0.00 | 0.00 | 49 | 1019.7 |
| 20260901152210 | 83 | 181 | 4.0 | 10.0 | 0.00 | 0.00 | 0.00 | 48 | 1019.5 |
| 20260901152050 | 83 | 181 | 4.0 | 10.0 | 0.00 | 0.00 | 0.00 | 48 | 1019.5 |
| 20260901151441 | 83 | 148 | 3.0 | 10.0 | 0.00 | 0.00 | 0.00 | 50 | 1019.5 |
| 20260901150937 | 82 | 104 | 3.0 | 9.0 | 0.00 | 0.00 | 0.00 | 52 | 1019.5 |
| 20260901150421 | 81 | 136 | 2.0 | 7.0 | 0.00 | 0.00 | 0.00 | 55 | 1019.7 |
| 20260901145904 | 80 | 282 | 2.0 | 8.0 | 0.00 | 0.00 | 0.00 | 57 | 1019.7 |
| 20260901145340 | 79 | 145 | 2.0 | 8.0 | 0.00 | 0.00 | 0.00 | 59 | 1019.7 |
| 20260901144841 | 78 | 184 | 2.0 | 5.0 | 0.00 | 0.00 | 0.00 | 61 | 1019.7 |
| 20260901144555 | 78 | 115 | 1.0 | 4.0 | 0.00 | 0.00 | 0.00 | 61 | 1019.7 |
| 20260901144440 | 78 | 115 | 1.0 | 4.0 | 0.00 | 0.00 | 0.00 | 61 | 1019.7 |
| 20260901144051 | 77 | 68 | 1.0 | 3.0 | 0.00 | 0.00 | 0.00 | 64 | 1019.7 |
| 20260901143935 | 77 | 68 | 1.0 | 3.0 | 0.00 | 0.00 | 0.00 | 64 | 1019.7 |
| 20260901143328 | 76 | 100 | 1.0 | 3.0 | 0.00 | 0.00 | 0.00 | 67 | 1019.7 |
| 20260901142826 | 75 | 100 | 1.0 | 6.0 | 0.00 | 0.00 | 0.00 | 70 | 1019.8 |
| 20260901142321 | 74 | 100 | 1.0 | 6.0 | 0.00 | 0.00 | 0.00 | 73 | 1019.8 |
| 20260901141818 | 73 | 87 | 1.0 | 2.0 | 0.00 | 0.00 | 0.00 | 76 | 1019.8 |
| 20260901141314 | 72 | 80 | 1.0 | 3.0 | 0.00 | 0.00 | 0.00 | 77 | 1019.9 |
| 20260901140750 | 71 | 106 | 1.0 | 3.0 | 0.00 | 0.00 | 0.00 | 79 | 1019.9 |
| 20260901140242 | 71 | 106 | 1.0 | 3.0 | 0.00 | 0.00 | 0.00 | 80 | 1019.8 |
| 20260901135739 | 70 | 106 | 0.0 | 3.0 | 0.00 | 0.00 | 0.00 | 81 | 1019.9 |
| 20260901135239 | 70 | 242 | 1.0 | 2.0 | 0.00 | 0.00 | 0.00 | 82 | 1019.9 |
| 20260901134714 | 69 | 242 | 1.0 | 3.0 | 0.00 | 0.00 | 0.00 | 83 | 1019.9 |
| 20260901134207 | 68 | 242 | 0.0 | 2.0 | 0.00 | 0.00 | 0.00 | 84 | 1019.9 |
| 20260901133638 | 68 | 242 | 0.0 | 2.0 | 0.00 | 0.00 | 0.00 | 85 | 1019.9 |
| 20260901133133 | 67 | 242 | 0.0 | 2.0 | 0.00 | 0.00 | 0.00 | 85 | 1019.7 |
| 20260901132629 | 67 | 242 | 0.0 | 2.0 | 0.00 | 0.00 | 0.00 | 85 | 1019.7 |
| 20260901132128 | 66 | 187 | 1.0 | 2.0 | 0.00 | 0.00 | 0.00 | 85 | 1019.5 |
| 20260901131628 | 66 | 170 | 1.0 | 5.0 | 0.00 | 0.00 | 0.00 | 86 | 1019.5 |
| 20260901131139 | 65 | 162 | 1.0 | 5.0 | 0.00 | 0.00 | 0.00 | 86 | 1019.5 |
| 20260901130553 | 65 | 155 | 0.0 | 3.0 | 0.00 | 0.00 | 0.00 | 86 | 1019.5 |
| 20260901130031 | 65 | 148 | 0.0 | 3.0 | 0.00 | 0.00 | 0.00 | 86 | 1019.4 |
| 20260901125502 | 65 | 134 | 0.0 | 3.0 | 0.00 | 0.00 | 0.00 | 85 | 1019.3 |
| 20260901124958 | 65 | 132 | 0.0 | 4.0 | 0.00 | 0.00 | 0.00 | 85 | 1019.3 |
| 20260901124455 | 65 | 294 | 0.0 | 4.0 | 0.00 | 0.00 | 0.00 | 85 | 1019.3 |
| 20260901124156 | 65 | 301 | 0.0 | 0.0 | 0.00 | 0.00 | 0.00 | 85 | 1019.2 |
| 20260901124032 | 65 | 301 | 0.0 | 0.0 | 0.00 | 0.00 | 0.00 | 85 | 1019.2 |
| 20260901123401 | 65 | 301 | 0.0 | 0.0 | 0.00 | 0.00 | 0.00 | 85 | 1019.2 |
| 20260901122859 | 65 | 292 | 0.0 | 1.0 | 0.00 | 0.00 | 0.00 | 84 | 1019.0 |
| 20260901122402 | 65 | 292 | 0.0 | 1.0 | 0.00 | 0.00 | 0.00 | 84 | 1018.9 |
| 20260901121840 | 65 | 292 | 0.0 | 0.0 | 0.00 | 0.00 | 0.00 | 84 | 1018.9 |
| 20260901121814 | 65 | 292 | 0.0 | 0.0 | 0.00 | 0.00 | 0.00 | 84 | 1018.9 |
| 20260901121439 | 65 | 292 | 0.0 | 0.0 | 0.00 | 0.00 | 0.00 | 84 | 1018.9 |
| 20260901120809 | 65 | 292 | 0.0 | 0.0 | 0.00 | 0.00 | 0.00 | 83 | 1018.9 |
| 20260901120527 | 65 | 292 | 0.0 | 0.0 | 0.00 | 0.00 | 0.00 | 84 | 1018.9 |
| 20260901120410 | 65 | 292 | 0.0 | 0.0 | 0.00 | 0.00 | 0.00 | 84 | 1018.9 |
| 20260901115737 | 66 | 292 | 0.0 | 0.0 | 0.00 | 0.00 | 0.00 | 83 | 1018.8 |
| 20260901115209 | 66 | 292 | 0.0 | 0.0 | 0.00 | 0.00 | 0.00 | 83 | 1018.7 |
| 20260901114646 | 66 | 292 | 0.0 | 0.0 | 0.00 | 0.00 | 0.00 | 82 | 1018.7 |
| 20260901114146 | 66 | 292 | 0.0 | 0.0 | 0.00 | 0.00 | 0.00 | 82 | 1018.7 |
| 20260901113843 | 66 | 292 | 0.0 | 0.0 | 0.00 | 0.00 | 0.00 | 82 | 1018.6 |
| 20260901113720 | 66 | 292 | 0.0 | 0.0 | 0.00 | 0.00 | 0.00 | 82 | 1018.6 |
| 20260901113051 | 66 | 292 | 0.0 | 0.0 | 0.00 | 0.00 | 0.00 | 81 | 1018.7 |
| 20260901112527 | 66 | 292 | 0.0 | 2.0 | 0.00 | 0.00 | 0.00 | 81 | 1018.7 |
| 20260901112018 | 67 | 292 | 0.0 | 2.0 | 0.00 | 0.00 | 0.00 | 81 | 1018.8 |
| 20260901111518 | 67 | 292 | 0.0 | 0.0 | 0.00 | 0.00 | 0.00 | 80 | 1018.7 |
| 20260901111010 | 67 | 292 | 0.0 | 1.0 | 0.00 | 0.00 | 0.00 | 80 | 1018.7 |
| 20260901110510 | 67 | 292 | 0.0 | 2.0 | 0.00 | 0.00 | 0.00 | 80 | 1018.8 |
| 20260901105942 | 67 | 292 | 0.0 | 2.0 | 0.00 | 0.00 | 0.00 | 79 | 1018.9 |
| 20260901105436 | 67 | 292 | 0.0 | 3.0 | 0.00 | 0.00 | 0.00 | 79 | 1019.0 |
| 20260901104925 | 67 | 292 | 0.0 | 3.0 | 0.00 | 0.00 | 0.00 | 79 | 1019.0 |
| 20260901104421 | 68 | 293 | 1.0 | 3.0 | 0.00 | 0.00 | 0.00 | 79 | 1018.9 |
| 20260901103917 | 68 | 293 | 0.0 | 2.0 | 0.00 | 0.00 | 0.00 | 77 | 1018.8 |
| 20260901103857 | 68 | 292 | 1.0 | 3.0 | 0.00 | 0.00 | 0.00 | 78 | 1019.0 |
| 20260901103815 | 68 | 293 | 0.0 | 2.0 | 0.00 | 0.00 | 0.00 | 77 | 1018.8 |
| 20260901102905 | 68 | 292 | 0.0 | 2.0 | 0.00 | 0.00 | 0.00 | 76 | 1019.0 |
| 20260901102327 | 68 | 292 | 0.0 | 2.0 | 0.00 | 0.00 | 0.00 | 76 | 1019.0 |
| 20260901101832 | 68 | 293 | 1.0 | 2.0 | 0.00 | 0.00 | 0.00 | 76 | 1018.9 |
| 20260901101328 | 68 | 292 | 1.0 | 3.0 | 0.00 | 0.00 | 0.00 | 75 | 1019.0 |
| 20260901100824 | 69 | 292 | 2.0 | 3.0 | 0.00 | 0.00 | 0.00 | 75 | 1019.1 |
| 20260901100258 | 69 | 292 | 2.0 | 3.0 | 0.00 | 0.00 | 0.00 | 75 | 1019.1 |
| 20260901095736 | 69 | 292 | 2.0 | 3.0 | 0.00 | 0.00 | 0.00 | 75 | 1019.1 |
| 20260901095207 | 69 | 292 | 2.0 | 5.0 | 0.00 | 0.00 | 0.00 | 75 | 1018.9 |
| 20260901094654 | 69 | 292 | 2.0 | 5.0 | 0.00 | 0.00 | 0.00 | 75 | 1019.2 |
| 20260901094157 | 69 | 292 | 2.0 | 5.0 | 0.00 | 0.00 | 0.00 | 74 | 1019.1 |
| 20260901093634 | 69 | 293 | 3.0 | 7.0 | 0.00 | 0.00 | 0.00 | 74 | 1019.2 |
| 20260901093128 | 69 | 293 | 3.0 | 7.0 | 0.00 | 0.00 | 0.00 | 73 | 1019.2 |
| 20260901092550 | 70 | 293 | 4.0 | 7.0 | 0.00 | 0.00 | 0.00 | 73 | 1019.3 |
| 20260901092029 | 70 | 290 | 4.0 | 7.0 | 0.00 | 0.01 | 0.00 | 73 | 1019.2 |
| 20260901091504 | 70 | 283 | 5.0 | 8.0 | 0.00 | 0.01 | 0.00 | 72 | 1019.3 |
| 20260901090958 | 71 | 281 | 5.0 | 8.0 | 0.00 | 0.01 | 0.00 | 72 | 1019.3 |
| 20260901090445 | 71 | 270 | 5.0 | 11.0 | 0.00 | 0.02 | 0.00 | 72 | 1019.7 |
| 20260901085944 | 71 | 281 | 5.0 | 11.0 | 0.00 | 0.02 | 0.00 | 72 | 1019.7 |
| 20260901085442 | 71 | 272 | 5.0 | 10.0 | 0.00 | 0.03 | 0.00 | 72 | 1019.8 |
| 20260901084930 | 71 | 275 | 6.0 | 10.0 | 0.00 | 0.04 | 0.00 | 71 | 1019.8 |
| 20260901084435 | 71 | 275 | 6.0 | 11.0 | 0.00 | 0.04 | 0.00 | 71 | 1019.8 |
| 20260901084127 | 71 | 287 | 6.0 | 12.0 | 0.00 | 0.05 | 0.00 | 71 | 1019.7 |
| 20260901084008 | 71 | 287 | 6.0 | 12.0 | 0.00 | 0.05 | 0.00 | 71 | 1019.7 |
| 20260901083627 | 71 | 267 | 7.0 | 14.0 | 0.00 | 0.05 | 0.00 | 70 | 1019.7 |
| 20260901083508 | 71 | 267 | 7.0 | 14.0 | 0.00 | 0.05 | 0.00 | 70 | 1019.7 |
| 20260901082901 | 72 | 269 | 8.0 | 14.0 | 0.00 | 0.05 | 0.00 | 70 | 1019.7 |
| 20260901082339 | 72 | 263 | 8.0 | 13.0 | 0.00 | 0.05 | 0.00 | 69 | 1019.8 |
| 20260901081835 | 72 | 276 | 9.0 | 17.0 | 0.00 | 0.05 | 0.00 | 69 | 1019.9 |
| 20260901081831 | 72 | 294 | 9.0 | 17.0 | 0.00 | 0.05 | 0.00 | 69 | 1019.9 |
| 20260901081329 | 72 | 282 | 9.0 | 17.0 | 0.00 | 0.06 | 0.00 | 69 | 1020.1 |
| 20260901080830 | 72 | 271 | 8.0 | 14.0 | 0.00 | 0.06 | 0.00 | 69 | 1020.2 |
| 20260901080324 | 72 | 251 | 8.0 | 14.0 | 0.00 | 0.06 | 0.00 | 69 | 1020.4 |
| 20260901075759 | 72 | 257 | 8.0 | 17.0 | 0.00 | 0.06 | 0.00 | 70 | 1020.5 |
| 20260901075257 | 72 | 268 | 8.0 | 17.0 | 0.00 | 0.06 | 0.00 | 72 | 1020.4 |
| 20260901074739 | 72 | 245 | 8.0 | 16.0 | 0.00 | 0.07 | 0.00 | 74 | 1020.4 |
| 20260901074446 | 71 | 242 | 7.0 | 16.0 | 0.00 | 0.07 | 0.00 | 79 | 1020.3 |
| 20260901074321 | 71 | 242 | 7.0 | 16.0 | 0.00 | 0.07 | 0.00 | 79 | 1020.3 |
| 20260901073652 | 71 | 248 | 7.0 | 11.0 | 0.00 | 0.07 | 0.00 | 80 | 1020.3 |
| 20260901073621 | 71 | 245 | 5.0 | 12.0 | 0.00 | 0.07 | 0.00 | 81 | 1020.2 |
| 20260901073243 | 71 | 245 | 5.0 | 12.0 | 0.00 | 0.07 | 0.00 | 81 | 1020.2 |
| 20260901072623 | 71 | 252 | 3.0 | 10.0 | 0.00 | 0.07 | 0.00 | 81 | 1020.1 |
| 20260901072120 | 71 | 250 | 2.0 | 7.0 | 0.00 | 0.07 | 0.00 | 81 | 1019.9 |
| 20260901071609 | 71 | 247 | 1.0 | 2.0 | 0.00 | 0.07 | 0.00 | 81 | 1019.8 |
| 20260901071116 | 71 | 247 | 1.0 | 2.0 | 0.00 | 0.07 | 0.00 | 81 | 1019.7 |
| 20260901070804 | 71 | 247 | 1.0 | 2.0 | 0.00 | 0.07 | 0.00 | 80 | 1019.5 |
| 20260901070556 | 71 | 247 | 1.0 | 2.0 | 0.00 | 0.07 | 0.00 | 80 | 1019.5 |
| 20260901070235 | 71 | 247 | 2.0 | 4.0 | 0.00 | 0.07 | 0.00 | 79 | 1019.9 |
| 20260901070115 | 71 | 247 | 2.0 | 4.0 | 0.00 | 0.07 | 0.00 | 79 | 1019.9 |
| 20260901065443 | 72 | 247 | 1.0 | 4.0 | 0.00 | 0.07 | 0.00 | 78 | 1020.0 |
| 20260901064920 | 72 | 247 | 2.0 | 10.0 | 0.00 | 0.07 | 0.00 | 78 | 1020.1 |
| 20260901064419 | 72 | 247 | 3.0 | 10.0 | 0.00 | 0.08 | 0.00 | 76 | 1020.0 |
| 20260901063922 | 72 | 246 | 5.0 | 11.0 | 0.00 | 0.09 | 0.00 | 75 | 1020.0 |
| 20260901063416 | 72 | 242 | 7.0 | 11.0 | 0.00 | 0.09 | 0.00 | 75 | 1019.9 |
| 20260901062850 | 72 | 247 | 5.0 | 10.0 | 0.00 | 0.09 | 0.00 | 76 | 1019.9 |
| 20260901062358 | 73 | 257 | 3.0 | 8.0 | 0.00 | 0.09 | 0.00 | 77 | 1019.3 |
| 20260901061824 | 73 | 281 | 2.0 | 6.0 | 0.00 | 0.09 | 0.00 | 76 | 1019.1 |
| 20260901061258 | 73 | 280 | 2.0 | 4.0 | 0.00 | 0.09 | 0.00 | 75 | 1018.7 |
| 20260901060732 | 74 | 279 | 2.0 | 8.0 | 0.00 | 0.10 | 0.00 | 75 | 1018.7 |
| 20260901060239 | 74 | 279 | 2.0 | 8.0 | 0.00 | 0.10 | 0.00 | 75 | 1018.7 |
| 20260901060213 | 74 | 110 | 0.0 | 3.0 | 0.00 | 0.12 | 0.00 | 73 | 1018.6 |
| 20260901055834 | 74 | 110 | 0.0 | 3.0 | 0.00 | 0.12 | 0.00 | 73 | 1018.6 |
| 20260901055202 | 75 | 110 | 0.0 | 3.0 | 0.00 | 0.18 | 0.00 | 71 | 1018.4 |
| 20260901054920 | 75 | 110 | 0.0 | 0.0 | 0.00 | 0.22 | 0.00 | 70 | 1018.3 |
| 20260901054804 | 75 | 110 | 0.0 | 0.0 | 0.00 | 0.22 | 0.00 | 70 | 1018.3 |
| 20260901054134 | 75 | 110 | 1.0 | 6.0 | 0.00 | 0.22 | 0.00 | 68 | 1018.3 |
| 20260901053628 | 75 | 110 | 2.0 | 6.0 | 0.00 | 0.22 | 0.00 | 66 | 1018.1 |
| 20260901053102 | 75 | 110 | 1.0 | 3.0 | 0.00 | 0.22 | 0.00 | 67 | 1018.0 |
| 20260901052532 | 75 | 110 | 1.0 | 3.0 | 0.00 | 0.22 | 0.00 | 68 | 1018.2 |
| 20260901052008 | 75 | 110 | 1.0 | 7.0 | 0.00 | 0.22 | 0.00 | 69 | 1018.0 |
| 20260901051504 | 75 | 110 | 1.0 | 7.0 | 0.00 | 0.22 | 0.00 | 69 | 1017.9 |
| 20260901051010 | 75 | 110 | 4.0 | 9.0 | 0.00 | 0.22 | 0.00 | 67 | 1018.2 |
| 20260901050831 | 75 | 110 | 4.0 | 9.0 | 0.00 | 0.22 | 0.00 | 68 | 1018.0 |
| 20260901050741 | 75 | 110 | 4.0 | 9.0 | 0.00 | 0.22 | 0.00 | 68 | 1018.0 |
| 20260901045939 | 76 | 117 | 1.0 | 7.0 | 0.00 | 0.22 | 0.22 | 68 | 1018.2 |
| 20260901045442 | 76 | 258 | 0.0 | 0.0 | 0.00 | 0.22 | 0.22 | 68 | 1018.8 |
| 20260901044922 | 76 | 258 | 0.0 | 6.0 | 0.00 | 0.22 | 0.22 | 67 | 1018.7 |
| 20260901044643 | 76 | 259 | 2.0 | 6.0 | 0.00 | 0.22 | 0.22 | 65 | 1018.9 |
| 20260901044524 | 76 | 259 | 2.0 | 6.0 | 0.00 | 0.22 | 0.22 | 65 | 1018.9 |
| 20260901043920 | 76 | 258 | 4.0 | 8.0 | 0.00 | 0.22 | 0.22 | 64 | 1019.7 |